Preview of NWS' New Version of Forecast
This preview is not operational and should not be used for support decisions.

Regional Weather Roundup (RWR)

Issued by National Weather Service (NWS)

                            
000
ASUS43 KLSX 182007
RWRMO 

WEATHER SUMMARY FOR MISSOURI
NATIONAL WEATHER SERVICE SPRINGFIELD MO
200 PM CST FRI JAN 18 2019

NOTE: "FAIR" INDICATES FEW OR NO CLOUDS BELOW 12,000 FEET WITH NO
       SIGNIFICANT WEATHER AND/OR OBSTRUCTIONS TO VISIBILITY.
       CURRENT SKY AND/OR WEATHER CONDITIONS ARE NOT AVAILABLE FOR
       CHILLICOTHE AND FARMINGTON.

MOZ001>031-035>038-043-044-053-054-182100-
...NORTHERN AND WESTERN MISSOURI...
  
CITY           SKY/WX    TMP DP  RH WIND       PRES   REMARKS
KANSAS CTY INT DRZL/FOG  35  35 100 NE8       29.82S VSB 1/8 WCI  29  
KANSAS C DTWN  CLOUDY    39  35  86 NE7       29.81F FOG              
LEE'S SUMMIT   FOG       37  37 100 E9        29.79F VSB 3/4          
ST JOSEPH      CLOUDY    35  35 100 E7        29.86F FOG     WCI  29  
CHILLICOTHE      N/A     34  33  96 E3        29.92S                  
KIRKSVILLE     FOG       31  31 100 E13       29.95F VSB 3/4 WCI  21  
     
$$
MOZ066>068-077>081-088>096-101>105-182100-
...SOUTHWEST MISSOURI...
  
CITY           SKY/WX    TMP DP  RH WIND       PRES   REMARKS
SPRINGFIELD    MOSUNNY   47  39  74 SE23G33   29.80F                  
JOPLIN         MOSUNNY   56  41  57 SE13G23   29.74F                  
BRANSON        PTSUNNY   50  43  76 SE14G22   29.86F                  
               
$$
MOZ032>034-039>042-045>050-055>058-069>072-182100-
...CENTRAL MISSOURI...  
  
CITY           SKY/WX    TMP DP  RH WIND       PRES   REMARKS
COLUMBIA       CLOUDY    37  35  92 SE14      29.90F WCI  28          
JEFFERSON CITY CLOUDY    39  35  86 E14       29.91F                  
ROLLA          CLOUDY    43  37  79 SE15G23   29.91F                  
SEDALIA        CLOUDY    36  36 100 E12       29.83F WCI  28          
WARRENSBURG    CLOUDY    37  36  93 E10G18    29.80F                  
OSAGE BEACH    CLOUDY    46  39  76 SE13G18   29.87F                  
               
$$
MOZ051-052-059>065-182100-
...EAST CENTRAL MISSOURI...
  
CITY           SKY/WX    TMP DP  RH WIND       PRES   REMARKS
ST LOUIS INTL  CLOUDY    36  32  85 SE17      30.01F WCI  26          
SPIRIT OF STL  CLOUDY    37  33  85 E10G23    30.00F WCI  30          
ST CHARLES     CLOUDY    36  34  92 SE13      30.01F WCI  27          
                   
$$
MOZ072>076-082>087-097>100-106>115-182100-
...SOUTH CENTRAL AND SOUTHEAST MISSOURI...
  
CITY           SKY/WX    TMP DP  RH WIND       PRES   REMARKS
CAPE GIRARDEAU CLOUDY    41  36  82 E7        30.05F HAZE             
FARMINGTON     CLOUDY    40  36  86 SE13      29.99F                  
POPLAR BLUFF   CLOUDY    44  40  85 E10       30.01F                  
WEST PLAINS    CLOUDY    45  38  76 S13G23    29.95F                  
                                       
$$